QPF
0.04 0.04 0.03 0.03 0.03 0.02 0.01 0.01 0.01 0.02 0.05 0.04 0.03 0.03 0.03 0.03 0.04 0.03 0.01 0.01 0.01 0.01 0.02 0.02 0.02 0.03 0.03 0.03 0.03 0.03 0.03 0.03 0.04 0.02 0.01 0.01 0.01 0.02 0.02 0.02 0.02 0.02 0.03
0.05 0.05 0.04 0.03 0.02 0.02 0.02 0.02 0.02 0.03 0.05 0.05 0.04 0.03 0.03 0.03 0.02 0.03 0.01 0.01 0.01 0.01 0.01 0.01 0.01 0.01 0.01 0.02 0.03 0.03 0.02 0.02 0.02 0.01 0.01 0.01 0.01 0.02 0.02 0.02 0.02 0.02 0.02
0.05 0.05 0.04 0.03 0.02 0.01 0.02 0.03 0.03 0.05 0.06 0.07 0.07 0.09 0.08 0.03 0.01 0.01 0.02 0.02 0.01 0.01 0.01 0.01 0.01 0.00 0.01 0.01 0.01 0.01 0.01 0.02 0.02 0.01 0.02 0.02 0.02 0.04 0.03 0.02 0.02 0.02 0.01
0.06 0.04 0.03 0.03 0.02 0.01 0.01 0.03 0.05 0.06 0.06 0.10 0.11 0.10 0.04 0.01 0.01 0.01 0.02 0.02 0.02 0.02 0.01 0.01 0.02 0.01 0.01 0.01 0.01 0.01 0.01 0.01 0.01 0.02 0.02 0.03 0.03 0.04 0.04 0.03 0.02 0.02 0.01
0.03 0.03 0.03 0.03 0.03 0.02 0.01 0.02 0.04 0.04 0.04 0.04 0.04 0.04 0.02 0.01 0.01 0.02 0.02 0.02 0.02 0.02 0.03 0.03 0.03 0.02 0.02 0.01 0.01 0.01 0.01 0.01 0.01 0.01 0.01 0.02 0.03 0.04 0.03 0.03 0.02 0.02 0.02
0.02 0.02 0.02 0.03 0.02 0.02 0.02 0.03 0.03 0.03 0.03 0.03 0.02 0.02 0.02 0.01 0.02 0.03 0.03 0.02 0.02 0.01 0.02 0.02 0.02 0.02 0.02 0.02 0.01 0.01 0.01 0.00 0.00 0.00 0.00 0.01 0.02 0.02 0.03 0.03 0.03 0.02 0.02
0.03 0.03 0.03 0.03 0.02 0.02 0.02 0.03 0.04 0.04 0.02 0.02 0.03 0.02 0.02 0.02 0.03 0.03 0.03 0.02 0.01 0.01 0.01 0.02 0.01 0.01 0.01 0.01 0.01 0.01 0.00 0.00 0.01 0.00 0.00 0.00 0.01 0.01 0.03 0.03 0.03 0.03 0.02
0.03 0.04 0.05 0.05 0.04 0.03 0.02 0.02 0.03 0.03 0.02 0.03 0.03 0.04 0.03 0.02 0.02 0.02 0.02 0.02 0.01 0.01 0.01 0.01 0.01 0.01 0.01 0.01 0.01 0.01 0.00 0.00 0.00 0.01 0.01 0.00 0.01 0.02 0.02 0.02 0.02 0.02 0.02
0.02 0.02 0.02 0.02 0.02 0.02 0.02 0.02 0.02 0.02 0.02 0.02 0.03 0.04 0.04 0.03 0.03 0.03 0.02 0.01 0.01 0.01 0.01 0.01 0.01 0.01 0.01 0.01 0.01 0.01 0.01 0.01 0.01 0.01 0.01 0.01 0.01 0.02 0.03 0.02 0.02 0.02 0.02
0.03 0.02 0.02 0.01 0.02 0.02 0.03 0.03 0.02 0.02 0.02 0.02 0.02 0.03 0.03 0.03 0.04 0.03 0.02 0.01 0.01 0.02 0.02 0.01 0.02 0.02 0.01 0.01 0.01 0.00 0.00 0.00 0.00 0.01 0.01 0.00 0.00 0.01 0.02 0.01 0.01 0.02 0.01
0.03 0.02 0.03 0.03 0.03 0.04 0.04 0.04 0.03 0.02 0.01 0.01 0.02 0.02 0.02 0.02 0.02 0.02 0.01 0.01 0.01 0.02 0.02 0.02 0.02 0.02 0.01 0.02 0.01 0.01 0.01 0.01 0.01 0.00 0.00 0.00 0.00 0.00 0.01 0.01 0.01 0.01 0.01
0.02 0.02 0.03 0.03 0.03 0.03 0.02 0.02 0.01 0.01 0.01 0.01 0.01 0.02 0.01 0.01 0.02 0.03 0.02 0.02 0.01 0.01 0.02 0.02 0.02 0.02 0.02 0.03 0.02 0.02 0.02 0.01 0.01 0.01 0.00 0.00 0.00 0.00 0.00 0.00 0.01 0.01 0.01
0.01 0.02 0.03 0.02 0.01 0.01 0.01 0.01 0.01 0.01 0.02 0.03 0.02 0.01 0.01 0.01 0.01 0.02 0.03 0.03 0.03 0.02 0.01 0.02 0.02 0.02 0.02 0.02 0.02 0.02 0.02 0.02 0.01 0.01 0.00 0.00 0.00 0.00 0.00 0.00 0.00 0.00 0.01
0.02 0.02 0.02 0.02 0.02 0.02 0.02 0.01 0.01 0.01 0.02 0.02 0.01 0.01 0.01 0.01 0.01 0.02 0.03 0.04 0.05 0.04 0.03 0.02 0.02 0.02 0.01 0.01 0.01 0.01 0.01 0.01 0.01 0.01 0.01 0.01 0.01 0.01 0.01 0.01 0.01 0.00 0.00
0.02 0.02 0.02 0.01 0.01 0.01 0.01 0.02 0.01 0.01 0.02 0.01 0.01 0.01 0.00 0.00 0.02 0.03 0.02 0.03 0.05 0.05 0.03 0.02 0.02 0.01 0.01 0.01 0.01 0.01 0.01 0.01 0.01 0.00 0.00 0.00 0.01 0.01 0.01 0.01 0.01 0.01 0.00
0.02 0.01 0.01 0.01 0.01 0.01 0.01 0.02 0.01 0.01 0.02 0.01 0.00 0.01 0.01 0.00 0.01 0.02 0.02 0.02 0.02 0.04 0.04 0.02 0.01 0.01 0.01 0.01 0.01 0.00 0.01 0.01 0.01 0.00 0.00 0.00 0.00 0.01 0.01 0.01 0.01 0.01 0.00
0.02 0.02 0.01 0.01 0.01 0.02 0.02 0.02 0.02 0.02 0.01 0.01 0.00 0.01 0.01 0.01 0.01 0.01 0.01 0.01 0.01 0.02 0.03 0.02 0.01 0.01 0.01 0.00 0.00 0.00 0.01 0.01 0.01 0.00 0.01 0.00 0.01 0.01 0.01 0.01 0.01 0.01 0.01
0.02 0.02 0.01 0.01 0.01 0.01 0.01 0.02 0.01 0.01 0.00 0.00 0.01 0.01 0.01 0.01 0.01 0.01 0.01 0.01 0.01 0.01 0.02 0.01 0.01 0.01 0.00 0.00 0.00 0.01 0.01 0.01 0.01 0.01 0.01 0.01 0.01 0.01 0.01 0.01 0.01 0.01 0.01
0.02 0.01 0.01 0.01 0.01 0.01 0.01 0.01 0.01 0.01 0.00 0.01 0.01 0.01 0.01 0.01 0.01 0.00 0.01 0.01 0.00 0.00 0.01 0.02 0.02 0.01 0.01 0.01 0.00 0.01 0.01 0.01 0.01 0.01 0.01 0.01 0.01 0.01 0.01 0.01 0.01 0.01 0.01
0.01 0.01 0.01 0.01 0.01 0.01 0.00 0.01 0.01 0.00 0.00 0.00 0.00 0.01 0.01 0.01 0.01 0.01 0.01 0.01 0.01 0.01 0.01 0.02 0.02 0.02 0.01 0.01 0.01 0.01 0.01 0.01 0.01 0.01 0.01 0.01 0.01 0.01 0.01 0.01 0.01 0.01 0.01
0.01 0.01 0.01 0.01 0.00 0.01 0.01 0.00 0.01 0.01 0.01 0.01 0.01 0.01 0.01 0.01 0.02 0.02 0.02 0.02 0.02 0.01 0.01 0.01 0.01 0.01 0.01 0.01 0.01 0.01 0.01 0.02 0.01 0.01 0.01 0.01 0.00 0.01 0.01 0.01 0.01 0.01 0.01
0.02 0.02 0.01 0.01 0.01 0.01 0.01 0.00 0.01 0.01 0.01 0.01 0.01 0.01 0.01 0.01 0.01 0.02 0.02 0.02 0.02 0.02 0.01 0.01 0.01 0.01 0.01 0.01 0.01 0.01 0.02 0.02 0.01 0.01 0.01 0.00 0.00 0.00 0.01 0.01 0.01 0.01 0.01
0.02 0.02 0.02 0.01 0.01 0.01 0.01 0.02 0.02 0.03 0.03 0.03 0.03 0.03 0.02 0.01 0.01 0.01 0.01 0.01 0.02 0.02 0.02 0.01 0.01 0.01 0.01 0.01 0.01 0.01 0.01 0.01 0.01 0.01 0.01 0.01 0.00 0.00 0.00 0.01 0.01 0.01 0.01
0.01 0.02 0.02 0.02 0.02 0.03 0.03 0.04 0.04 0.03 0.03 0.02 0.02 0.01 0.00 0.00 0.00 0.00 0.00 0.01 0.01 0.01 0.02 0.01 0.01 0.01 0.01 0.01 0.01 0.01 0.01 0.01 0.01 0.01 0.01 0.01 0.01 0.01 0.01 0.01 0.01 0.01 0.01
0.01 0.02 0.02 0.03 0.04 0.05 0.04 0.03 0.03 0.02 0.01 0.01 0.00 0.00 0.00 0.00 0.00 0.01 0.01 0.01 0.00 0.01 0.01 0.01 0.01 0.01 0.01 0.02 0.01 0.01 0.01 0.01 0.01 0.01 0.01 0.01 0.01 0.01 0.01 0.01 0.01 0.01 0.01
0.02 0.02 0.03 0.04 0.05 0.06 0.05 0.03 0.02 0.02 0.02 0.02 0.01 0.00 0.00 0.01 0.01 0.01 0.01 0.00 0.01 0.01 0.01 0.02 0.02 0.01 0.01 0.02 0.02 0.02 0.01 0.01 0.01 0.01 0.01 0.01 0.01 0.01 0.01 0.01 0.01 0.01 0.01
MSLP
1014.31 1014.34 1014.39 1014.45 1014.49 1014.49 1014.44 1014.35 1014.20 1014.02 1013.81 1013.57 1013.31 1013.04 1012.75 1012.46 1012.15 1011.83 1011.50 1011.14 1010.73 1010.27 1009.73 1009.11 1008.42 1007.67 1006.90 1006.16 1005.49 1004.95 1004.57 1004.37 1004.33 1004.42 1004.61 1004.82 1005.02 1005.15 1005.21 1005.21 1005.17 1005.13 1005.16
1014.16 1014.18 1014.23 1014.29 1014.34 1014.36 1014.33 1014.25 1014.12 1013.96 1013.76 1013.54 1013.30 1013.04 1012.78 1012.50 1012.22 1011.94 1011.63 1011.30 1010.92 1010.48 1009.97 1009.38 1008.72 1007.99 1007.25 1006.53 1005.89 1005.38 1005.02 1004.83 1004.82 1004.94 1005.15 1005.39 1005.63 1005.80 1005.91 1005.95 1005.95 1005.94 1005.97
1014.05 1014.08 1014.14 1014.20 1014.25 1014.27 1014.26 1014.19 1014.08 1013.94 1013.76 1013.56 1013.34 1013.11 1012.86 1012.61 1012.35 1012.08 1011.80 1011.48 1011.13 1010.73 1010.25 1009.71 1009.09 1008.42 1007.74 1007.08 1006.49 1006.01 1005.68 1005.51 1005.49 1005.61 1005.81 1006.06 1006.29 1006.49 1006.62 1006.69 1006.72 1006.74 1006.78
1013.98 1014.02 1014.09 1014.16 1014.21 1014.23 1014.21 1014.16 1014.07 1013.95 1013.80 1013.63 1013.44 1013.23 1013.01 1012.77 1012.52 1012.26 1011.99 1011.69 1011.36 1010.98 1010.56 1010.07 1009.52 1008.94 1008.33 1007.74 1007.22 1006.78 1006.47 1006.30 1006.27 1006.35 1006.52 1006.74 1006.95 1007.13 1007.26 1007.35 1007.40 1007.44 1007.51
1013.92 1013.99 1014.07 1014.13 1014.18 1014.19 1014.18 1014.14 1014.06 1013.97 1013.86 1013.72 1013.57 1013.39 1013.19 1012.97 1012.73 1012.47 1012.20 1011.90 1011.59 1011.24 1010.86 1010.43 1009.97 1009.47 1008.96 1008.46 1007.99 1007.61 1007.31 1007.13 1007.06 1007.10 1007.21 1007.36 1007.52 1007.67 1007.79 1007.88 1007.94 1008.00 1008.08
1013.88 1013.97 1014.05 1014.11 1014.14 1014.15 1014.13 1014.10 1014.05 1013.99 1013.92 1013.83 1013.71 1013.57 1013.40 1013.19 1012.95 1012.68 1012.40 1012.11 1011.80 1011.48 1011.14 1010.78 1010.39 1009.98 1009.56 1009.14 1008.74 1008.39 1008.11 1007.91 1007.79 1007.76 1007.79 1007.87 1007.98 1008.08 1008.17 1008.25 1008.32 1008.39 1008.48
1013.85 1013.95 1014.02 1014.06 1014.07 1014.07 1014.05 1014.03 1014.01 1013.99 1013.97 1013.93 1013.86 1013.75 1013.60 1013.40 1013.16 1012.89 1012.60 1012.29 1011.99 1011.68 1011.38 1011.07 1010.75 1010.42 1010.08 1009.74 1009.40 1009.08 1008.80 1008.58 1008.41 1008.31 1008.26 1008.27 1008.30 1008.36 1008.42 1008.49 1008.56 1008.64 1008.73
1013.82 1013.91 1013.97 1013.98 1013.98 1013.96 1013.94 1013.94 1013.95 1013.98 1014.00 1014.01 1013.99 1013.92 1013.79 1013.60 1013.36 1013.08 1012.77 1012.46 1012.15 1011.85 1011.57 1011.31 1011.05 1010.78 1010.51 1010.23 1009.93 1009.64 1009.36 1009.11 1008.90 1008.74 1008.62 1008.56 1008.54 1008.55 1008.58 1008.63 1008.70 1008.77 1008.85
1013.79 1013.87 1013.90 1013.89 1013.86 1013.83 1013.82 1013.84 1013.88 1013.94 1014.02 1014.07 1014.09 1014.06 1013.95 1013.77 1013.53 1013.24 1012.92 1012.59 1012.28 1011.99 1011.73 1011.50 1011.28 1011.07 1010.85 1010.61 1010.36 1010.08 1009.81 1009.54 1009.29 1009.08 1008.91 1008.79 1008.72 1008.69 1008.70 1008.73 1008.78 1008.84 1008.91
1013.78 1013.82 1013.82 1013.79 1013.75 1013.72 1013.71 1013.75 1013.82 1013.92 1014.03 1014.12 1014.18 1014.16 1014.07 1013.90 1013.66 1013.37 1013.04 1012.71 1012.39 1012.11 1011.87 1011.66 1011.48 1011.30 1011.13 1010.92 1010.70 1010.44 1010.17 1009.89 1009.61 1009.37 1009.16 1009.00 1008.89 1008.83 1008.81 1008.82 1008.85 1008.89 1008.94
1013.76 1013.79 1013.77 1013.72 1013.67 1013.64 1013.65 1013.70 1013.80 1013.92 1014.06 1014.17 1014.24 1014.24 1014.16 1013.99 1013.75 1013.46 1013.14 1012.81 1012.50 1012.23 1012.00 1011.82 1011.66 1011.51 1011.36 1011.18 1010.98 1010.74 1010.47 1010.18 1009.90 1009.63 1009.40 1009.21 1009.07 1008.98 1008.93 1008.91 1008.91 1008.93 1008.95
1013.75 1013.76 1013.74 1013.69 1013.64 1013.63 1013.65 1013.72 1013.83 1013.96 1014.10 1014.22 1014.29 1014.29 1014.21 1014.05 1013.81 1013.52 1013.21 1012.90 1012.60 1012.35 1012.14 1011.98 1011.84 1011.71 1011.58 1011.42 1011.22 1011.00 1010.73 1010.45 1010.16 1009.88 1009.63 1009.42 1009.25 1009.13 1009.05 1008.99 1008.96 1008.94 1008.92
1013.74 1013.75 1013.73 1013.70 1013.68 1013.68 1013.72 1013.80 1013.91 1014.05 1014.18 1014.28 1014.33 1014.32 1014.23 1014.06 1013.84 1013.56 1013.27 1012.98 1012.71 1012.48 1012.29 1012.14 1012.02 1011.90 1011.78 1011.63 1011.45 1011.22 1010.97 1010.69 1010.40 1010.11 1009.85 1009.62 1009.42 1009.26 1009.14 1009.04 1008.97 1008.90 1008.85
1013.71 1013.75 1013.75 1013.76 1013.77 1013.80 1013.85 1013.94 1014.05 1014.16 1014.27 1014.34 1014.37 1014.33 1014.23 1014.06 1013.84 1013.59 1013.32 1013.06 1012.82 1012.62 1012.46 1012.32 1012.21 1012.10 1011.98 1011.83 1011.65 1011.43 1011.17 1010.89 1010.60 1010.31 1010.03 1009.78 1009.55 1009.35 1009.18 1009.04 1008.92 1008.81 1008.71
1013.66 1013.73 1013.78 1013.82 1013.87 1013.94 1014.01 1014.10 1014.20 1014.29 1014.36 1014.40 1014.39 1014.32 1014.21 1014.04 1013.83 1013.61 1013.37 1013.15 1012.95 1012.78 1012.63 1012.51 1012.41 1012.30 1012.17 1012.02 1011.83 1011.60 1011.34 1011.06 1010.76 1010.46 1010.17 1009.89 1009.63 1009.39 1009.17 1008.98 1008.81 1008.65 1008.52
1013.57 1013.68 1013.78 1013.87 1013.96 1014.06 1014.15 1014.24 1014.32 1014.39 1014.43 1014.43 1014.39 1014.30 1014.18 1014.01 1013.83 1013.63 1013.43 1013.25 1013.09 1012.94 1012.82 1012.71 1012.61 1012.49 1012.36 1012.19 1011.99 1011.76 1011.49 1011.20 1010.89 1010.58 1010.26 1009.96 1009.66 1009.38 1009.12 1008.88 1008.66 1008.47 1008.31
1013.44 1013.59 1013.73 1013.87 1014.00 1014.12 1014.23 1014.33 1014.40 1014.44 1014.45 1014.43 1014.36 1014.27 1014.14 1013.99 1013.83 1013.67 1013.51 1013.37 1013.24 1013.12 1013.02 1012.92 1012.81 1012.69 1012.54 1012.37 1012.15 1011.91 1011.63 1011.34 1011.02 1010.69 1010.35 1010.02 1009.69 1009.38 1009.07 1008.79 1008.53 1008.31 1008.13
1013.26 1013.44 1013.62 1013.79 1013.96 1014.10 1014.23 1014.33 1014.39 1014.43 1014.43 1014.39 1014.32 1014.23 1014.11 1013.99 1013.86 1013.73 1013.61 1013.50 1013.41 1013.31 1013.22 1013.13 1013.02 1012.90 1012.74 1012.55 1012.33 1012.08 1011.80 1011.49 1011.16 1010.82 1010.47 1010.11 1009.75 1009.40 1009.06 1008.75 1008.46 1008.22 1008.02
1013.04 1013.24 1013.45 1013.64 1013.83 1014.00 1014.14 1014.24 1014.32 1014.35 1014.35 1014.33 1014.27 1014.19 1014.10 1014.01 1013.91 1013.82 1013.73 1013.66 1013.58 1013.51 1013.43 1013.34 1013.24 1013.11 1012.95 1012.76 1012.54 1012.29 1012.00 1011.69 1011.35 1011.00 1010.62 1010.24 1009.86 1009.48 1009.12 1008.78 1008.48 1008.22 1008.02
1012.80 1013.01 1013.22 1013.44 1013.64 1013.82 1013.97 1014.09 1014.18 1014.24 1014.26 1014.25 1014.22 1014.17 1014.11 1014.05 1013.99 1013.93 1013.87 1013.81 1013.76 1013.70 1013.63 1013.54 1013.44 1013.32 1013.16 1012.98 1012.77 1012.52 1012.24 1011.93 1011.58 1011.22 1010.83 1010.43 1010.02 1009.62 1009.24 1008.89 1008.58 1008.32 1008.12
1012.54 1012.76 1012.97 1013.19 1013.40 1013.59 1013.76 1013.91 1014.02 1014.10 1014.15 1014.18 1014.19 1014.18 1014.15 1014.12 1014.09 1014.05 1014.01 1013.97 1013.92 1013.87 1013.80 1013.72 1013.63 1013.51 1013.37 1013.20 1013.00 1012.76 1012.49 1012.18 1011.84 1011.46 1011.06 1010.64 1010.22 1009.80 1009.40 1009.04 1008.72 1008.47 1008.29
1012.28 1012.49 1012.71 1012.93 1013.15 1013.36 1013.55 1013.71 1013.86 1013.98 1014.07 1014.14 1014.18 1014.21 1014.22 1014.22 1014.20 1014.18 1014.15 1014.11 1014.06 1014.01 1013.94 1013.86 1013.78 1013.67 1013.54 1013.39 1013.21 1012.98 1012.72 1012.42 1012.07 1011.68 1011.27 1010.83 1010.38 1009.95 1009.54 1009.18 1008.87 1008.63 1008.46
1012.00 1012.22 1012.44 1012.66 1012.89 1013.11 1013.33 1013.52 1013.70 1013.86 1014.00 1014.11 1014.19 1014.26 1014.30 1014.32 1014.32 1014.30 1014.27 1014.23 1014.17 1014.11 1014.04 1013.97 1013.88 1013.79 1013.67 1013.54 1013.36 1013.15 1012.90 1012.59 1012.24 1011.84 1011.40 1010.94 1010.48 1010.03 1009.61 1009.25 1008.95 1008.72 1008.58
1011.68 1011.90 1012.14 1012.38 1012.62 1012.86 1013.10 1013.33 1013.54 1013.74 1013.92 1014.08 1014.21 1014.30 1014.37 1014.41 1014.42 1014.41 1014.38 1014.32 1014.26 1014.18 1014.11 1014.03 1013.95 1013.86 1013.75 1013.62 1013.46 1013.25 1012.99 1012.68 1012.31 1011.89 1011.43 1010.95 1010.47 1010.00 1009.58 1009.22 1008.93 1008.73 1008.62
1011.29 1011.53 1011.78 1012.04 1012.30 1012.56 1012.83 1013.09 1013.34 1013.58 1013.81 1014.01 1014.18 1014.31 1014.41 1014.47 1014.50 1014.49 1014.46 1014.40 1014.33 1014.24 1014.16 1014.07 1013.99 1013.89 1013.78 1013.65 1013.48 1013.27 1013.00 1012.66 1012.28 1011.83 1011.35 1010.85 1010.35 1009.87 1009.45 1009.09 1008.82 1008.65 1008.57
1010.81 1011.07 1011.34 1011.62 1011.89 1012.18 1012.46 1012.76 1013.05 1013.33 1013.60 1013.85 1014.06 1014.24 1014.38 1014.48 1014.53 1014.54 1014.52 1014.46 1014.39 1014.30 1014.21 1014.12 1014.02 1013.92 1013.79 1013.65 1013.46 1013.22 1012.93 1012.58 1012.16 1011.69 1011.19 1010.66 1010.15 1009.67 1009.25 1008.90 1008.66 1008.51 1008.47
Thickness
5691 5690 5688 5686 5685 5684 5682 5681 5679 5677 5675 5673 5672 5670 5668 5667 5665 5664 5663 5661 5659 5657 5656 5654 5652 5651 5649 5647 5646 5644 5642 5640 5638 5639 5639 5640 5640 5641 5641 5640 5640 5640 5640
5688 5686 5684 5683 5682 5681 5679 5678 5676 5674 5673 5671 5669 5668 5666 5664 5663 5661 5660 5658 5656 5654 5652 5650 5649 5648 5645 5643 5642 5640 5639 5637 5635 5634 5634 5634 5635 5635 5634 5634 5634 5634 5633
5685 5683 5680 5679 5678 5677 5676 5674 5673 5671 5670 5669 5667 5665 5663 5662 5661 5659 5657 5655 5653 5651 5649 5647 5646 5644 5642 5640 5638 5636 5634 5633 5631 5629 5628 5628 5628 5628 5628 5627 5627 5626 5627
5682 5679 5677 5676 5675 5673 5672 5671 5669 5668 5667 5665 5664 5662 5660 5659 5658 5656 5654 5651 5649 5647 5646 5645 5643 5641 5639 5637 5635 5632 5630 5628 5626 5624 5623 5622 5621 5621 5621 5620 5619 5619 5620
5678 5675 5674 5673 5672 5671 5668 5666 5666 5665 5664 5662 5660 5658 5657 5655 5654 5653 5650 5648 5646 5644 5643 5642 5641 5639 5637 5634 5632 5629 5626 5623 5621 5619 5618 5617 5616 5615 5615 5614 5613 5613 5613
5674 5672 5671 5670 5669 5667 5665 5663 5662 5660 5659 5658 5656 5655 5653 5653 5651 5648 5646 5645 5643 5642 5640 5639 5638 5635 5633 5631 5629 5626 5623 5620 5618 5615 5614 5613 5612 5611 5610 5608 5607 5607 5607
5671 5670 5668 5667 5665 5663 5662 5660 5658 5656 5655 5654 5653 5651 5649 5648 5646 5645 5643 5641 5640 5638 5637 5635 5634 5632 5629 5627 5624 5622 5620 5618 5616 5613 5611 5610 5609 5608 5606 5604 5603 5602 5602
5667 5666 5665 5663 5661 5659 5657 5655 5654 5652 5651 5650 5649 5646 5644 5644 5642 5641 5639 5637 5635 5634 5632 5630 5628 5627 5625 5622 5620 5618 5616 5614 5612 5610 5608 5608 5607 5605 5602 5601 5599 5597 5596
5664 5662 5661 5659 5657 5655 5653 5651 5649 5648 5647 5646 5644 5643 5641 5640 5638 5636 5634 5632 5631 5629 5628 5627 5624 5622 5620 5617 5615 5612 5611 5609 5608 5606 5605 5603 5602 5600 5598 5596 5594 5593 5594
5660 5659 5657 5655 5652 5650 5649 5647 5645 5644 5643 5641 5640 5638 5637 5635 5633 5631 5629 5628 5626 5625 5623 5622 5620 5618 5615 5612 5610 5607 5606 5605 5603 5602 5600 5599 5597 5596 5594 5592 5591 5589 5589
5658 5655 5653 5650 5648 5646 5644 5643 5641 5639 5637 5636 5634 5633 5631 5630 5629 5626 5624 5622 5621 5619 5618 5617 5615 5613 5610 5607 5604 5602 5601 5599 5597 5596 5595 5594 5592 5591 5590 5588 5586 5585 5584
5653 5651 5648 5646 5644 5643 5640 5637 5635 5633 5631 5630 5628 5627 5626 5625 5623 5621 5619 5617 5615 5613 5612 5611 5610 5607 5605 5603 5600 5598 5596 5594 5592 5591 5590 5589 5588 5587 5585 5584 5582 5580 5579
5648 5646 5644 5642 5639 5637 5635 5632 5630 5628 5626 5624 5622 5621 5620 5619 5617 5615 5613 5611 5609 5607 5607 5605 5604 5602 5600 5598 5596 5593 5591 5589 5587 5586 5585 5584 5583 5582 5580 5579 5577 5575 5574
5643 5641 5639 5636 5634 5631 5629 5627 5625 5623 5621 5619 5618 5616 5615 5613 5612 5610 5608 5606 5604 5602 5600 5599 5597 5596 5594 5593 5591 5589 5586 5584 5582 5581 5579 5578 5577 5575 5574 5572 5571 5569 5568
5637 5635 5633 5631 5628 5626 5624 5621 5620 5619 5617 5615 5614 5611 5609 5609 5609 5606 5604 5601 5599 5597 5594 5592 5591 5590 5589 5587 5586 5583 5581 5579 5576 5575 5573 5572 5571 5569 5568 5565 5563 5562 5561
5632 5630 5628 5625 5623 5621 5619 5616 5614 5613 5612 5610 5608 5606 5605 5604 5603 5601 5598 5596 5593 5590 5588 5587 5585 5584 5583 5582 5580 5579 5577 5575 5572 5570 5568 5566 5564 5563 5561 5558 5556 5555 5554
5628 5625 5623 5621 5619 5617 5614 5612 5609 5607 5606 5604 5602 5601 5599 5598 5596 5594 5592 5589 5587 5584 5582 5582 5580 5579 5578 5576 5575 5573 5572 5570 5567 5565 5563 5561 5559 5557 5555 5553 5551 5550 5549
5623 5621 5619 5617 5615 5612 5610 5607 5605 5603 5601 5599 5597 5594 5593 5591 5590 5588 5586 5583 5581 5578 5577 5576 5575 5574 5572 5571 5570 5568 5567 5564 5562 5560 5558 5556 5554 5552 5550 5548 5546 5544 5543
5618 5616 5614 5612 5610 5607 5605 5602 5600 5598 5595 5593 5591 5589 5587 5585 5583 5581 5579 5578 5578 5575 5573 5571 5570 5569 5568 5567 5565 5563 5561 5559 5556 5554 5552 5550 5548 5546 5545 5543 5541 5538 5536
5613 5611 5609 5607 5605 5602 5600 5598 5595 5592 5590 5587 5585 5583 5581 5578 5577 5575 5573 5572 5571 5570 5569 5567 5566 5565 5563 5562 5560 5558 5556 5554 5551 5549 5547 5545 5543 5541 5539 5537 5536 5534 5532
5608 5606 5603 5602 5600 5597 5595 5593 5591 5588 5585 5583 5581 5579 5576 5575 5574 5572 5570 5568 5567 5566 5565 5563 5562 5560 5558 5557 5555 5553 5551 5549 5547 5544 5542 5540 5538 5536 5534 5532 5530 5528 5526
5602 5600 5598 5596 5595 5592 5590 5588 5586 5583 5581 5579 5576 5575 5571 5570 5569 5568 5566 5565 5564 5562 5561 5559 5558 5556 5554 5552 5550 5549 5547 5545 5542 5540 5537 5535 5533 5531 5529 5527 5525 5523 5521
5596 5594 5592 5591 5589 5587 5585 5583 5581 5578 5576 5574 5572 5570 5568 5566 5565 5564 5562 5561 5560 5558 5556 5555 5553 5552 5550 5548 5546 5544 5542 5540 5538 5536 5533 5531 5529 5527 5525 5523 5521 5519 5517
5590 5588 5587 5585 5583 5581 5579 5577 5576 5574 5572 5570 5568 5566 5564 5562 5561 5560 5558 5557 5555 5554 5552 5550 5549 5548 5546 5544 5542 5540 5537 5536 5533 5531 5529 5527 5525 5523 5521 5519 5517 5515 5513
5585 5583 5581 5579 5577 5576 5574 5572 5571 5569 5567 5565 5563 5561 5560 5558 5557 5556 5554 5552 5550 5549 5548 5546 5544 5543 5541 5539 5537 5535 5533 5531 5529 5527 5525 5522 5520 5518 5516 5514 5513 5511 5509
5579 5577 5576 5574 5572 5570 5568 5567 5565 5564 5562 5560 5558 5557 5555 5554 5553 5551 5550 5548 5546 5544 5542 5541 5539 5537 5535 5533 5531 5530 5528 5526 5524 5522 5519 5517 5516 5514 5512 5510 5508 5506 5505